Weather in Kalgoorlie-Boulder

Australia     30°46′54″S   121°29′21″E
temp.,
°C
wind,
m/s
gust,
m/s
humid.,
%
clouds,
%
prec.,
mm/h
press.,
hPa
HPBL,
m
23 april, fri
fri2323:00+17e4647100 0.0 1024110
02:00+14ene486566 0.0 1023121
05:00+13e3575100 0.0 102379
08:00+15ne5865100 0.0 1024370
11:00+21ne4439100 0.0 10231056
14:00+23nne323083 0.0 10201508
17:00+22e1231100 0.0 102113
20:00+19e463786 0.0 102277
24 april, sat
sat2423:00+17ene57448 0.0 1022111
02:00+15ene595381 0.0 1022147
05:00+14ene59565 0.0 1023147
08:00+17ne6946100 0.0 1024335
11:00+23nne5530100 0.0 10231230
14:00+25ne3323100 0.0 10201844
17:00+24e332599 0.0 102019
20:00+20e45291 0.0 102245
25 april, sun
sun2523:00+18ene593680 0.0 1022131
02:00+17ne511424 0.0 1022156
05:00+15ne59470 0.0 1022131
08:00+18nne59393 0.0 1024313
11:00+25nne55250 0.0 10221155
14:00+27nne21201 0.0 10202145
17:00+25e2223100 0.0 102014
20:00+23ene5625100 0.0 102161
26 april, mon
mon2623:00+20ne612298 0.0 1021177
02:00+18ne510335 0.0 1021157
05:00+17nne59360 0.0 1022125
08:00+19n58310 0.0 1023275
11:00+27n66195 0.0 10211025
14:00+29n321723 0.0 10182518
17:00+26nne11245 0.0 101911
20:00+24ne5723100 0.0 102075
27 april, tue
tue2723:00+21nne511265 0.0 1021153
02:00+19nne510285 0.0 1021139
05:00+18n452960 0.0 102254
08:00+21nnw592446 0.0 1023250
11:00+29nnw771680 0.0 10211148
14:00+31nw441483 0.0 10192564
17:00+27nnw3317100 0.0 102011
20:00+24nw2220100 0.0 102111